This is the latest recevied weather packets stored in our database for station/object XE1E-15. If no packets are shown the sender has not sent any weather packets the latest 10 day(s).
| Time | Temp. | Humidity | Pressure | Rain* | Wind** | Luminosity | Snow |
|---|---|---|---|---|---|---|---|
| 1777533341 | 25° C | 29% | 1022.1 hPa | - | - | - | - |
| 1777532381 | 25° C | 29% | 1022.3 hPa | - | - | - | - |
| 1777531421 | 25.56° C | 29% | 1022.4 hPa | - | - | - | - |
| 1777530493 | 25.56° C | 28% | 1022.4 hPa | - | - | - | - |
| 1777530460 | 25.56° C | 28% | 1022.4 hPa | - | - | - | - |
| 1777529500 | 25° C | 28% | 1022.6 hPa | - | - | - | - |
| 1777528540 | 25.56° C | 27% | 1022.7 hPa | - | - | - | - |
| 1777527580 | 25.56° C | 27% | 1022.8 hPa | - | - | - | - |
| 1777526620 | 26.11° C | 26% | 1023 hPa | - | - | - | - |
| 1777525660 | 26.11° C | 26% | 1023 hPa | - | - | - | - |
| 1777524700 | 26.11° C | 27% | 1023 hPa | - | - | - | - |
| 1777523740 | 26.11° C | 26% | 1023 hPa | - | - | - | - |
| 1777522780 | 26.11° C | 26% | 1023 hPa | - | - | - | - |
| 1777521820 | 26.67° C | 26% | 1022.9 hPa | - | - | - | - |
| 1777520859 | 26.11° C | 26% | 1022.7 hPa | - | - | - | - |
| 1777519899 | 26.67° C | 24% | 1022.6 hPa | - | - | - | - |
| 1777518939 | 26.11° C | 25% | 1022.2 hPa | - | - | - | - |
| 1777517979 | 25.56° C | 23% | 1022.1 hPa | - | - | - | - |
| 1777517019 | 26.11° C | 25% | 1022 hPa | - | - | - | - |
| 1777516059 | 26.67° C | 23% | 1021.9 hPa | - | - | - | - |
| 1777515099 | 26.11° C | 21% | 1021.6 hPa | - | - | - | - |
| 1777514138 | 26.67° C | 27% | 1021.5 hPa | - | - | - | - |
| 1777513178 | 27.22° C | 25% | 1021.2 hPa | - | - | - | - |
| 1777512701 | 27.22° C | 25% | 1021 hPa | - | - | - | - |
| 1777511741 | 27.22° C | 18% | 1020.7 hPa | - | - | - | - |
* Rain since midnight (hover to see other rain measurements)
** Current wind speed in m/s (hover to see current wind gust speed)